HUBBLE
1 20580U 90037B 10182.34335461 .00000234 00000-0 17837-4 0 5945
2 20580 028.4682 147.4498 0002892 358.8779 001.2267 15.00992347906881
ISS
1 25544U 98067A 10183.01103237 .00011736 00000-0 91547-4 0 4274
2 25544 051.6465 154.7287 0010027 032.7085 083.3744 15.72156097665805
CO-58
1 28895U 05043F 10181.20938373 .00000133 00000-0 37223-4 0 06210
2 28895 098.0130 065.2551 0016843 242.7994 117.1471 14.59905393248888
FALCON
1 30776U 07006E 10181.82611546 .00000532 00000-0 41086-4 0 8600
2 30776 035.4348 321.4855 0001945 321.3484 038.7092 15.03701208182113
MAST
1 31126U 07012K 10181.64493234 .00000053 00000-0 22358-4 0 9025
2 31126 097.9360 222.9615 0094258 183.5363 176.5137 14.53597999170013
CAPE1
1 31130U 07012P 10181.50287584 .00000239 00000-0 65758-4 0 9223
2 31130 097.9355 220.2105 0102189 191.8484 168.0368 14.52193616169596
COMPASS
1 32787U 08021E 10181.20050385 .00000183 00000-0 29765-4 0 07131
2 32787 097.8934 245.7790 0014709 241.7957 118.1775 14.81896430117428
AAUSAT2
1 32788U 08021F 10181.13478436 .00000254 00000-0 38702-4 0 07056
2 32788 097.8939 245.8463 0014210 243.1422 116.8401 14.82040580117421
DO-64
1 32789U 08021G 10182.69512034 .00000983 00000-0 12978-3 0 7226
2 32789 097.8998 247.8741 0014558 235.5215 124.4623 14.82195463117655
CO-66
1 32791U 08021J 10182.71005432 .00000343 00000-0 43551-4 0 7043
2 32791 097.8953 247.2808 0014987 235.5413 124.4883 14.81680787668121
RS-30
1 32953U 08025A 10182.53693838 .00000010 00000-0 00000 0 0 8319
2 32953 082.5002 020.7547 0019931 071.6172 288.7085 12.43005971 95524
TACSAT-3
1 35001U 09028A 10181.97172979 .00004554 00000-0 10945-3 0 03242
2 35001 040.4528 131.2953 0019626 106.9822 253.3146 15.41905388062769
PHARMSAT
1 35002U 09028B 10181.92084552 .00003736 00000-0 89139-4 0 03071
2 35002 040.4669 129.5546 0022648 111.8414 248.4815 15.42420571062770
HAWKSAT1
1 35003U 09028C 10181.93110625 .00008953 00000-0 18479-3 0 03315
2 35003 040.4546 123.8890 0020149 127.0313 233.2358 15.45621313062847
CP6
1 35004U 09028D 10181.92051447 .00010032 00000-0 20051-3 0 03254
2 35004 040.4595 122.9279 0019258 132.0572 228.1896 15.46485833062841
AEROCUB3
1 35005U 09028E 10182.82763045 .00032718 00000-0 52461-3 0 3636
2 35005 040.4690 114.2611 0017013 159.2173 200.9347 15.52184970 63022
DRAGNSAT
1 35690U 09038B 10076.22711312 .05715194 12509-4 31481-3 0 3162
2 35690 051.6170 315.4586 0004999 310.9891 057.3269 16.42150010 36561
POLLUX
1 35693U 09038E 10087.99866888 .23496735 12787-4 17715-3 0 3529
2 35693 051.6099 254.5746 0006270 294.4866 097.5899 16.52338462 38395
CASTOR
1 35694U 09038F 10182.78538706 .00120917 18020-4 17177-3 0 5204
2 35694 051.6322 121.7936 0001362 044.5801 315.5321 16.05351770 53408
METEOR-M
1 35865U 09049A 10182.56045825 .00000176 00000-0 10000-3 0 4315
2 35865 098.7577 236.2566 0002403 345.6614 014.4493 14.21830849 40762
RS-38
1 35869U 09049E 10182.60076597 .00000177 00000-0 10000-3 0 4405
2 35869 098.7565 236.3305 0004295 336.0146 024.0831 14.21984272 40774
